• în România
  • Lista ţărilor
  • Pe 7 zile
  • Temperatura apei
  • Hartă satelitară
  • Meteo pe hartă
  • Widget-uri
  • user-avatar
    Intrare

    Meteo pe oră la Shusha

    Astăzi, 23 Iulie, Luni

    Timp Temperatura Precipitaţii Vânt Presiune Umiditate
    00:00 +20°C° 0 mm 1 m/s 657 mmHg 68%
    01:00 +19°C° 0 mm 1 m/s 656 mmHg 69%
    02:00 +19°C° 0 mm 1 m/s 656 mmHg 69%
    03:00 +19°C° 0 mm 1 m/s 656 mmHg 70%
    04:00 +19°C° 0 mm 1 m/s 656 mmHg 68%
    05:00 +20°C° 0 mm 1 m/s 657 mmHg 66%
    06:00 +20°C° 0 mm 1 m/s 657 mmHg 64%
    07:00 +21°C° 0 mm 2 m/s 657 mmHg 58%
    08:00 +24°C° 0 mm 2 m/s 657 mmHg 51%
    09:00 +25°C° 0 mm 2 m/s 658 mmHg 45%
    10:00 +26°C° 0 mm 3 m/s 657 mmHg 42%
    11:00 +27°C° 0 mm 3 m/s 657 mmHg 40%
    12:00 +29°C° 0 mm 3 m/s 657 mmHg 37%
    13:00 +29°C° 0,1 mm 4 m/s 657 mmHg 36%
    14:00 +29°C° 0,1 mm 4 m/s 657 mmHg 36%
    15:00 +30°C° 0,1 mm 4 m/s 656 mmHg 35%
    16:00 +29°C° 0 mm 3 m/s 656 mmHg 37%
    17:00 +29°C° 0 mm 3 m/s 656 mmHg 39%
    18:00 +28°C° 0 mm 3 m/s 656 mmHg 41%
    19:00 +26°C° 0,1 mm 2 m/s 656 mmHg 46%
    20:00 +25°C° 0,1 mm 2 m/s 656 mmHg 50%
    21:00 +23°C° 0,1 mm 1 m/s 656 mmHg 55%
    22:00 +22°C° 0 mm 1 m/s 656 mmHg 57%
    23:00 +21°C° 0 mm 2 m/s 656 mmHg 59%

    Mâine, 24 Iulie, Marţi

    Timp Temperatura Precipitaţii Vânt Presiune Umiditate
    00:00 +20°C° 0 mm 2 m/s 656 mmHg 61%
    01:00 +20°C° 0 mm 2 m/s 656 mmHg 62%
    02:00 +20°C° 0 mm 2 m/s 656 mmHg 63%
    03:00 +19°C° 0 mm 2 m/s 656 mmHg 64%
    04:00 +20°C° 0 mm 2 m/s 656 mmHg 62%
    05:00 +20°C° 0 mm 2 m/s 656 mmHg 60%
    06:00 +22°C° 0 mm 1 m/s 657 mmHg 58%
    07:00 +24°C° 0 mm 2 m/s 657 mmHg 53%
    08:00 +25°C° 0 mm 2 m/s 657 mmHg 47%
    09:00 +27°C° 0 mm 3 m/s 658 mmHg 41%
    10:00 +28°C° 0 mm 3 m/s 658 mmHg 38%
    11:00 +30°C° 0 mm 3 m/s 658 mmHg 35%
    12:00 +31°C° 0 mm 3 m/s 658 mmHg 32%
    13:00 +33°C° 0 mm 3 m/s 658 mmHg 32%
    14:00 +33°C° 0 mm 3 m/s 658 mmHg 31%
    15:00 +34°C° 0 mm 3 m/s 658 mmHg 30%
    16:00 +33°C° 0 mm 3 m/s 657 mmHg 32%
    17:00 +31°C° 0 mm 3 m/s 657 mmHg 34%
    18:00 +30°C° 0 mm 3 m/s 657 mmHg 36%
    19:00 +28°C° 0 mm 2 m/s 657 mmHg 42%
    20:00 +26°C° 0 mm 2 m/s 657 mmHg 48%
    21:00 +24°C° 0 mm 2 m/s 657 mmHg 54%
    22:00 +24°C° 0 mm 2 m/s 657 mmHg 54%
    23:00 +23°C° 0 mm 2 m/s 657 mmHg 55%

    Poimâine, 25 Iulie, Miercuri

    Timp Temperatura Precipitaţii Vânt Presiune Umiditate
    00:00 +23°C° 0 mm 2 m/s 657 mmHg 56%
    01:00 +23°C° 0 mm 2 m/s 657 mmHg 55%
    02:00 +23°C° 0 mm 2 m/s 657 mmHg 55%
    03:00 +21°C° 0 mm 2 m/s 657 mmHg 55%
    04:00 +23°C° 0 mm 2 m/s 658 mmHg 54%
    05:00 +23°C° 0 mm 1 m/s 658 mmHg 53%
    06:00 +24°C° 0 mm 1 m/s 658 mmHg 52%
    07:00 +26°C° 0 mm 2 m/s 658 mmHg 47%
    08:00 +28°C° 0 mm 2 m/s 659 mmHg 42%
    09:00 +30°C° 0 mm 2 m/s 659 mmHg 37%
    10:00 +31°C° 0 mm 3 m/s 659 mmHg 35%
    11:00 +33°C° 0 mm 3 m/s 659 mmHg 32%
    12:00 +35°C° 0 mm 3 m/s 659 mmHg 30%
    13:00 +35°C° 0 mm 3 m/s 659 mmHg 29%
    14:00 +36°C° 0 mm 4 m/s 658 mmHg 29%
    15:00 +36°C° 0 mm 4 m/s 658 mmHg 28%
    16:00 +35°C° 0 mm 4 m/s 658 mmHg 30%
    17:00 +34°C° 0 mm 4 m/s 658 mmHg 33%
    18:00 +33°C° 0 mm 4 m/s 657 mmHg 35%
    19:00 +30°C° 0 mm 3 m/s 657 mmHg 40%
    20:00 +28°C° 0 mm 2 m/s 657 mmHg 44%
    21:00 +26°C° 0 mm 2 m/s 657 mmHg 49%
    22:00 +26°C° 0 mm 2 m/s 657 mmHg 50%
    23:00 +25°C° 0 mm 2 m/s 657 mmHg 52%

    26 Iulie, Joi

    Timp Temperatura Precipitaţii Vânt Presiune Umiditate
    00:00 +24°C° 0 mm 2 m/s 657 mmHg 53%
    01:00 +24°C° 0 mm 2 m/s 657 mmHg 53%
    02:00 +24°C° 0 mm 2 m/s 657 mmHg 54%
    03:00 +24°C° 0 mm 1 m/s 657 mmHg 54%
    04:00 +24°C° 0 mm 1 m/s 657 mmHg 53%
    05:00 +24°C° 0 mm 1 m/s 657 mmHg 53%
    06:00 +25°C° 0 mm 1 m/s 658 mmHg 52%
    07:00 +26°C° 0 mm 2 m/s 658 mmHg 48%
    08:00 +28°C° 0 mm 2 m/s 659 mmHg 43%
    09:00 +30°C° 0 mm 2 m/s 659 mmHg 39%
    10:00 +31°C° 0 mm 3 m/s 659 mmHg 37%
    11:00 +33°C° 0 mm 3 m/s 659 mmHg 35%
    12:00 +34°C° 0 mm 4 m/s 659 mmHg 33%
    13:00 +35°C° 0 mm 4 m/s 659 mmHg 32%
    14:00 +35°C° 0 mm 4 m/s 659 mmHg 32%
    15:00 +36°C° 0 mm 4 m/s 659 mmHg 32%
    16:00 +35°C° 0 mm 4 m/s 658 mmHg 34%
    17:00 +34°C° 0 mm 4 m/s 658 mmHg 36%
    18:00 +33°C° 0 mm 4 m/s 658 mmHg 38%
    19:00 +30°C° 0 mm 3 m/s 658 mmHg 42%
    20:00 +27°C° 0 mm 2 m/s 658 mmHg 47%
    21:00 +25°C° 0 mm 2 m/s 658 mmHg 51%
    22:00 +25°C° 0 mm 2 m/s 658 mmHg 52%
    23:00 +24°C° 0 mm 2 m/s 658 mmHg 54%

    27 Iulie, Vineri

    Timp Temperatura Precipitaţii Vânt Presiune Umiditate
    00:00 +23°C° 0 mm 2 m/s 657 mmHg 55%
    01:00 +23°C° 0 mm 2 m/s 657 mmHg 54%
    02:00 +23°C° 0 mm 2 m/s 657 mmHg 53%
    03:00 +23°C° 0 mm 2 m/s 657 mmHg 52%
    04:00 +23°C° 0 mm 2 m/s 658 mmHg 50%
    05:00 +23°C° 0 mm 2 m/s 658 mmHg 49%
    06:00 +24°C° 0 mm 2 m/s 659 mmHg 47%
    07:00 +26°C° 0 mm 2 m/s 659 mmHg 44%
    08:00 +27°C° 0 mm 2 m/s 659 mmHg 40%
    09:00 +29°C° 0 mm 3 m/s 660 mmHg 37%
    10:00 +30°C° 0 mm 3 m/s 660 mmHg 34%
    11:00 +32°C° 0 mm 4 m/s 660 mmHg 31%
    12:00 +34°C° 0 mm 4 m/s 660 mmHg 28%
    13:00 +34°C° 0 mm 5 m/s 659 mmHg 28%
    14:00 +34°C° 0 mm 5 m/s 659 mmHg 27%
    15:00 +34°C° 0 mm 5 m/s 659 mmHg 26%
    16:00 +33°C° 0 mm 5 m/s 659 mmHg 27%
    17:00 +32°C° 0 mm 5 m/s 659 mmHg 28%
    18:00 +30°C° 0 mm 5 m/s 658 mmHg 29%
    19:00 +28°C° 0 mm 4 m/s 658 mmHg 33%
    20:00 +26°C° 0 mm 3 m/s 658 mmHg 36%
    21:00 +23°C° 0 mm 2 m/s 658 mmHg 39%
    22:00 +23°C° 0 mm 2 m/s 658 mmHg 40%
    23:00 +21°C° 0 mm 2 m/s 658 mmHg 41%

    28 Iulie, Sâmbătă

    Timp Temperatura Precipitaţii Vânt Presiune Umiditate
    00:00 +21°C° 0 mm 2 m/s 657 mmHg 42%
    01:00 +20°C° 0 mm 2 m/s 657 mmHg 41%
    02:00 +20°C° 0 mm 2 m/s 657 mmHg 40%
    03:00 +20°C° 0 mm 2 m/s 657 mmHg 39%
    04:00 +21°C° 0 mm 2 m/s 658 mmHg 39%
    05:00 +21°C° 0 mm 2 m/s 658 mmHg 38%
    06:00 +21°C° 0 mm 2 m/s 658 mmHg 37%
    07:00 +24°C° 0 mm 2 m/s 659 mmHg 34%
    08:00 +26°C° 0 mm 2 m/s 659 mmHg 31%
    09:00 +28°C° 0 mm 2 m/s 659 mmHg 28%
    10:00 +30°C° 0 mm 3 m/s 659 mmHg 26%
    11:00 +31°C° 0 mm 3 m/s 659 mmHg 24%
    12:00 +33°C° 0 mm 4 m/s 659 mmHg 22%
    13:00 +34°C° 0 mm 4 m/s 659 mmHg 22%
    14:00 +34°C° 0 mm 4 m/s 659 mmHg 22%
    15:00 +34°C° 0 mm 5 m/s 658 mmHg 22%
    16:00 +33°C° 0 mm 5 m/s 658 mmHg 23%
    17:00 +32°C° 0 mm 5 m/s 658 mmHg 24%
    18:00 +30°C° 0 mm 5 m/s 658 mmHg 26%
    19:00 +28°C° 0 mm 4 m/s 658 mmHg 28%
    20:00 +25°C° 0 mm 3 m/s 657 mmHg 31%
    21:00 +23°C° 0 mm 2 m/s 657 mmHg 33%
    22:00 +23°C° 0 mm 2 m/s 657 mmHg 33%
    23:00 +21°C° 0 mm 2 m/s 657 mmHg 34%
    Arată mai mult